Weather History for KSFY - November, 2012

Change the Weather History Date:

Sunday, November 4, 2012

  Actual Average (KCWI) Record (KCWI)
Temperature  
Mean Temperature 40 °F -  
Max Temperature 49 °F 50 °F 76 °F (1978)
Min Temperature 31 °F 35 °F 9 °F (1991)
Degree Days  
Heating Degree Days 26    
Moisture  
Dew Point 32 °F    
Average Humidity 75    
Maximum Humidity 96    
Minimum Humidity 53    
Precipitation  
Precipitation 0.00 in - - ()
Sea Level Pressure  
Sea Level Pressure 30.22 in    
Wind  
Wind Speed 1 mph (West)    
Max Wind Speed 6 mph    
Max Gust Speed -    
Visibility 10 miles    
Events      
Averages and records for this station are not official NWS values.
T = Trace of Precipitation, MM = Missing Value Source: NWS Daily Summary

Daily Weather History Graph

Daily Weather History Graph

Search for Another Location

Airport or City:

Trip Planner

Search our weather history database for the weather conditions in past years. The results will help you decide how hot, cold, wet, or windy it might be!

Date:

Astronomy

Nov. 04, 2012 Rise Set
Actual Time 6:37 AM CST 4:49 PM CST
Civil Twilight 6:08 AM CST 5:19 PM CST
Nautical Twilight 5:34 AM CST 5:52 PM CST
Astronomical Twilight 5:02 AM CST 6:25 PM CST
Moon 9:27 PM CST (11/4) 11:22 AM CST (11/4)
Length of Visible Light 11h 11m
Length of Day
10h 12m
Waning Gibbous, 72% of the Moon is Illuminated
Nov 4
Waning Gibbous
Nov 6
Last Quarter
Nov 13
New
Nov 20
First Quarter
Nov 28
Full

Hourly Weather History & Observations

Time (CST) Temp. Windchill Dew Point Humidity Pressure Visibility Wind Dir Wind Speed Gust Speed Precip Events Conditions
12:15 AM 34.2 °F - 30.4 °F 86% 30.22 in 10.0 mi Calm Calm - N/A   Overcast
12:35 AM 33.8 °F 30.8 °F 30.7 °F 89% 30.22 in 10.0 mi NNE 3.5 mph - N/A   Overcast
12:55 AM 34.2 °F - 29.7 °F 84% 30.22 in 10.0 mi Calm Calm - N/A   Mostly Cloudy
1:15 AM 33.3 °F 28.9 °F 29.8 °F 87% 30.23 in 10.0 mi NE 4.6 mph - N/A   Mostly Cloudy
1:35 AM 32.0 °F 28.7 °F 29.7 °F 91% 30.23 in 10.0 mi North 3.5 mph - N/A   Scattered Clouds
1:55 AM 32.7 °F - 29.7 °F 88% 30.24 in 10.0 mi Calm Calm - N/A   Scattered Clouds
1:15 AM 33.3 °F - 29.3 °F 85% 30.24 in 10.0 mi Calm Calm - N/A   Mostly Cloudy
1:35 AM 32.5 °F - 30.2 °F 91% 30.24 in 10.0 mi Calm Calm - N/A   Overcast
1:55 AM 33.1 °F - 31.1 °F 92% 30.24 in 10.0 mi Calm Calm - N/A   Overcast
2:15 AM 32.7 °F - 30.4 °F 91% 30.23 in 10.0 mi Calm Calm - N/A   Overcast
2:35 AM 33.3 °F - 31.5 °F 93% 30.23 in 10.0 mi Calm Calm - N/A   Overcast
2:55 AM 33.4 °F - 31.1 °F 91% 30.23 in 10.0 mi Calm Calm - N/A   Mostly Cloudy
3:15 AM 32.9 °F - 30.2 °F 90% 30.23 in 10.0 mi Calm Calm - N/A   Mostly Cloudy
3:35 AM 32.5 °F - 30.9 °F 94% 30.23 in 10.0 mi Calm Calm - N/A   Overcast
3:55 AM 33.6 °F - 31.1 °F 90% 30.24 in 10.0 mi Calm Calm - N/A   Mostly Cloudy
4:15 AM 34.0 °F - 30.0 °F 85% 30.24 in 10.0 mi Calm Calm - N/A   Scattered Clouds
4:35 AM 33.4 °F - 30.2 °F 88% 30.24 in 10.0 mi Calm Calm - N/A   Scattered Clouds
4:55 AM 32.9 °F 29.8 °F 30.2 °F 90% 30.24 in 10.0 mi NW 3.5 mph - N/A   Mostly Cloudy
5:15 AM 32.5 °F - 29.8 °F 90% 30.24 in 10.0 mi Calm Calm - N/A   Mostly Cloudy
5:35 AM 32.0 °F - 30.2 °F 93% 30.24 in 10.0 mi Calm Calm - N/A   Mostly Cloudy
5:55 AM 31.8 °F - 30.0 °F 93% 30.24 in 10.0 mi Calm Calm - N/A   Mostly Cloudy
6:15 AM 31.8 °F - 30.0 °F 93% 30.24 in 10.0 mi Calm Calm - N/A   Mostly Cloudy
6:35 AM 32.0 °F - 30.9 °F 96% 30.25 in 10.0 mi Calm Calm - N/A   Overcast
6:55 AM 32.9 °F - 31.6 °F 95% 30.25 in 10.0 mi Calm Calm - N/A   Overcast
7:15 AM 33.4 °F - 32.0 °F 94% 30.25 in 10.0 mi Calm Calm - N/A   Overcast
7:35 AM 34.7 °F - 32.0 °F 90% 30.25 in 10.0 mi Calm Calm - N/A   Mostly Cloudy
7:55 AM 35.2 °F - 32.2 °F 89% 30.25 in 10.0 mi Calm Calm - N/A   Scattered Clouds
8:15 AM 36.3 °F - 32.2 °F 85% 30.26 in 10.0 mi Calm Calm - N/A   Mostly Cloudy
8:35 AM 37.4 °F 34.9 °F 32.5 °F 83% 30.26 in 10.0 mi North 3.5 mph - N/A   Scattered Clouds
8:55 AM 38.5 °F 36.1 °F 32.2 °F 78% 30.26 in 10.0 mi West 3.5 mph - N/A   Scattered Clouds
9:15 AM 39.2 °F - 33.1 °F 79% 30.26 in 10.0 mi Calm Calm - N/A   Mostly Cloudy
9:35 AM 40.3 °F - 32.5 °F 74% 30.25 in 10.0 mi Calm Calm - N/A   Overcast
9:55 AM 41.4 °F - 33.1 °F 72% 30.25 in 10.0 mi Calm Calm - N/A   Overcast
10:15 AM 43.5 °F 41.9 °F 33.6 °F 68% 30.25 in 10.0 mi WSW 3.5 mph - N/A   Scattered Clouds
10:35 AM 44.6 °F 43.1 °F 32.7 °F 63% 30.24 in 10.0 mi WSW 3.5 mph - N/A   Mostly Cloudy
10:55 AM 44.2 °F 42.7 °F 32.2 °F 63% 30.24 in 10.0 mi WNW 3.5 mph - N/A   Overcast
11:15 AM 46.8 °F - 33.1 °F 59% 30.24 in 10.0 mi WSW 4.6 mph - N/A   Overcast
11:35 AM 46.6 °F - 32.9 °F 59% 30.24 in 10.0 mi WSW 3.5 mph - N/A   Overcast
11:55 AM 45.9 °F 44.6 °F 32.4 °F 59% 30.23 in 10.0 mi WSW 3.5 mph - N/A   Overcast
12:15 PM 47.5 °F - 33.1 °F 57% 30.22 in 10.0 mi SW 3.5 mph - N/A   Scattered Clouds
12:35 PM 47.7 °F - 32.0 °F 55% 30.21 in 10.0 mi Calm Calm - N/A   Clear
12:55 PM 48.2 °F - 31.6 °F 53% 30.21 in 10.0 mi SW 3.5 mph - N/A   Clear
1:15 PM 48.6 °F - 32.4 °F 54% 30.20 in 10.0 mi Calm Calm - N/A   Clear
1:35 PM 48.4 °F - 32.5 °F 54% 30.20 in 10.0 mi SW 4.6 mph - N/A   Mostly Cloudy
1:55 PM 48.2 °F - 32.7 °F 55% 30.19 in 10.0 mi SW 4.6 mph - N/A   Overcast
2:15 PM 46.8 °F - 33.1 °F 59% 30.19 in 10.0 mi SW 3.5 mph - N/A   Scattered Clouds
2:35 PM 46.4 °F - 32.7 °F 59% 30.18 in 10.0 mi Calm Calm - N/A   Clear
2:55 PM 46.8 °F - 32.5 °F 58% 30.18 in 10.0 mi Calm Calm - N/A   Mostly Cloudy
3:15 PM 47.3 °F - 32.4 °F 56% 30.18 in 10.0 mi Calm Calm - N/A   Overcast
3:35 PM 46.9 °F - 32.4 °F 57% 30.18 in 10.0 mi Calm Calm - N/A   Overcast
3:55 PM 46.9 °F - 32.0 °F 56% 30.18 in 10.0 mi Calm Calm - N/A   Overcast
4:15 PM 46.8 °F - 32.0 °F 57% 30.17 in 10.0 mi Calm Calm - N/A   Overcast
4:35 PM 46.4 °F - 32.2 °F 58% 30.17 in 10.0 mi Calm Calm - N/A   Overcast
4:55 PM 45.7 °F - 32.9 °F 61% 30.17 in 10.0 mi Calm Calm - N/A   Overcast
5:15 PM 45.5 °F - 33.8 °F 64% 30.18 in 10.0 mi Calm Calm - N/A   Overcast
5:35 PM 45.7 °F - 33.6 °F 63% 30.18 in 10.0 mi Calm Calm - N/A   Overcast
5:55 PM 45.7 °F - 32.5 °F 60% 30.18 in 10.0 mi Calm Calm - N/A   Overcast
6:15 PM 44.6 °F - 33.8 °F 66% 30.18 in 10.0 mi Calm Calm - N/A   Overcast
6:35 PM 44.6 °F - 34.2 °F 67% 30.19 in 10.0 mi Calm Calm - N/A   Overcast
6:55 PM 43.5 °F 41.9 °F 33.8 °F 69% 30.19 in 10.0 mi East 3.5 mph - N/A   Overcast
7:15 PM 43.5 °F 41.9 °F 33.3 °F 67% 30.18 in 10.0 mi East 3.5 mph - N/A   Overcast
7:35 PM 41.9 °F 40.0 °F 34.0 °F 73% 30.18 in 10.0 mi East 3.5 mph - N/A   Overcast
7:55 PM 42.1 °F 40.2 °F 34.0 °F 73% 30.18 in 10.0 mi East 3.5 mph - N/A   Overcast
8:15 PM 42.8 °F - 34.0 °F 71% 30.18 in 10.0 mi Calm Calm - N/A   Overcast
8:35 PM 42.4 °F - 34.7 °F 74% 30.19 in 10.0 mi Calm Calm - N/A   Overcast
8:55 PM 42.8 °F - 34.2 °F 72% 30.19 in 10.0 mi Calm Calm - N/A   Overcast
9:15 PM 42.1 °F - 34.7 °F 75% 30.19 in 10.0 mi Calm Calm - N/A   Overcast
9:35 PM 42.8 °F - 34.2 °F 72% 30.19 in 10.0 mi Calm Calm - N/A   Overcast
9:55 PM 42.8 °F - 34.0 °F 71% 30.19 in 10.0 mi Calm Calm - N/A   Overcast
10:15 PM 43.0 °F - 33.8 °F 70% 30.19 in 10.0 mi Calm Calm - N/A   Overcast
10:35 PM 42.8 °F 39.3 °F 32.9 °F 68% 30.19 in 10.0 mi East 5.8 mph - N/A   Overcast